• In Uzbekistan
  • List of Countries
  • For 7 days
  • Water Temperature
  • Weather Map
  • Weather Widgets
  • user-avatar
    Login

    Hourly Weather Barisal

    Today, 26 May, Tuesday

    Time Temperature Precipitation Wind Pressure Humidity
    00:00 +30°C° 0 mm 5 mps 754 mmHg 80%
    01:00 +30°C° 0 mm 6 mps 754 mmHg 79%
    02:00 +32°C° 0 mm 6 mps 753 mmHg 78%
    03:00 +32°C° 0 mm 7 mps 753 mmHg 77%
    04:00 +30°C° 0 mm 7 mps 753 mmHg 77%
    05:00 +30°C° 0 mm 6 mps 753 mmHg 77%
    06:00 +30°C° 0 mm 7 mps 754 mmHg 77%
    07:00 +32°C° 0 mm 7 mps 754 mmHg 72%
    08:00 +33°C° 0 mm 7 mps 754 mmHg 67%
    09:00 +34°C° 0 mm 7 mps 754 mmHg 63%
    10:00 +35°C° 0 mm 8 mps 754 mmHg 58%
    11:00 +38°C° 0 mm 8 mps 754 mmHg 53%
    12:00 +38°C° 0 mm 7 mps 754 mmHg 52%
    13:00 +38°C° 0 mm 8 mps 754 mmHg 54%
    14:00 +37°C° 0 mm 8 mps 753 mmHg 56%
    15:00 +37°C° 0 mm 9 mps 752 mmHg 58%
    16:00 +35°C° 0 mm 9 mps 752 mmHg 62%
    17:00 +34°C° 0 mm 8 mps 752 mmHg 66%
    18:00 +33°C° 0 mm 7 mps 753 mmHg 69%
    19:00 +33°C° 0 mm 7 mps 753 mmHg 71%
    20:00 +32°C° 0 mm 7 mps 753 mmHg 73%
    21:00 +32°C° 0 mm 7 mps 754 mmHg 75%
    22:00 +32°C° 0 mm 7 mps 754 mmHg 76%
    23:00 +32°C° 0 mm 7 mps 753 mmHg 77%

    Tomorrow, 27 May, Wednesday

    Time Temperature Precipitation Wind Pressure Humidity
    00:00 +30°C° 0 mm 7 mps 753 mmHg 78%
    01:00 +31°C° 0 mm 8 mps 753 mmHg 78%
    02:00 +32°C° 0 mm 8 mps 753 mmHg 77%
    03:00 +32°C° 0 mm 8 mps 752 mmHg 77%
    04:00 +32°C° 0 mm 7 mps 752 mmHg 77%
    05:00 +32°C° 0 mm 7 mps 753 mmHg 77%
    06:00 +30°C° 0 mm 6 mps 753 mmHg 77%
    07:00 +33°C° 0 mm 7 mps 753 mmHg 71%
    08:00 +34°C° 0 mm 8 mps 754 mmHg 66%
    09:00 +35°C° 0 mm 9 mps 754 mmHg 60%
    10:00 +37°C° 0 mm 9 mps 754 mmHg 58%
    11:00 +37°C° 0 mm 9 mps 753 mmHg 56%
    12:00 +38°C° 0 mm 9 mps 753 mmHg 54%
    13:00 +38°C° 0 mm 9 mps 752 mmHg 54%
    14:00 +38°C° 0 mm 9 mps 752 mmHg 55%
    15:00 +38°C° 0 mm 8 mps 751 mmHg 56%
    16:00 +37°C° 0 mm 8 mps 751 mmHg 60%
    17:00 +34°C° 0 mm 8 mps 751 mmHg 65%
    18:00 +33°C° 0 mm 8 mps 751 mmHg 69%
    19:00 +33°C° 0.6 mm 7 mps 751 mmHg 72%
    20:00 +32°C° 0.6 mm 6 mps 752 mmHg 74%
    21:00 +32°C° 0.6 mm 4 mps 753 mmHg 76%
    22:00 +32°C° 0 mm 5 mps 753 mmHg 75%
    23:00 +32°C° 0 mm 6 mps 753 mmHg 75%

    Day after tomorrow, 28 May, Thursday

    Time Temperature Precipitation Wind Pressure Humidity
    00:00 +32°C° 0 mm 6 mps 753 mmHg 74%
    01:00 +32°C° 0 mm 6 mps 752 mmHg 75%
    02:00 +32°C° 0 mm 7 mps 752 mmHg 76%
    03:00 +32°C° 0 mm 7 mps 751 mmHg 77%
    04:00 +32°C° 0 mm 6 mps 752 mmHg 76%
    05:00 +32°C° 0 mm 5 mps 752 mmHg 76%
    06:00 +32°C° 0 mm 4 mps 752 mmHg 75%
    07:00 +33°C° 0 mm 5 mps 752 mmHg 69%
    08:00 +35°C° 0 mm 7 mps 752 mmHg 63%
    09:00 +37°C° 0 mm 8 mps 753 mmHg 57%
    10:00 +38°C° 0 mm 8 mps 752 mmHg 55%
    11:00 +39°C° 0 mm 8 mps 752 mmHg 53%
    12:00 +39°C° 0 mm 8 mps 752 mmHg 51%
    13:00 +40°C° 0 mm 8 mps 751 mmHg 48%
    14:00 +40°C° 0 mm 8 mps 751 mmHg 46%
    15:00 +40°C° 0 mm 8 mps 751 mmHg 44%
    16:00 +39°C° 0 mm 8 mps 751 mmHg 51%
    17:00 +36°C° 0 mm 7 mps 750 mmHg 57%
    18:00 +35°C° 0 mm 7 mps 750 mmHg 64%
    19:00 +34°C° 0 mm 7 mps 751 mmHg 67%
    20:00 +33°C° 0 mm 6 mps 752 mmHg 71%
    21:00 +33°C° 0 mm 5 mps 753 mmHg 74%
    22:00 +33°C° 0.1 mm 5 mps 753 mmHg 75%
    23:00 +33°C° 0.1 mm 5 mps 753 mmHg 76%

    29 May, Friday

    Time Temperature Precipitation Wind Pressure Humidity
    00:00 +32°C° 0.1 mm 5 mps 753 mmHg 77%
    01:00 +32°C° 0.2 mm 5 mps 753 mmHg 78%
    02:00 +32°C° 0.2 mm 5 mps 753 mmHg 78%
    03:00 +32°C° 0.2 mm 5 mps 753 mmHg 79%
    04:00 +30°C° 9 mm 5 mps 753 mmHg 83%
    05:00 +29°C° 9 mm 5 mps 753 mmHg 87%
    06:00 +28°C° 9 mm 6 mps 753 mmHg 90%
    07:00 +28°C° 2.9 mm 5 mps 754 mmHg 85%
    08:00 +29°C° 2.9 mm 5 mps 754 mmHg 79%
    09:00 +29°C° 2.9 mm 5 mps 755 mmHg 73%
    10:00 +32°C° 0.1 mm 5 mps 754 mmHg 69%
    11:00 +33°C° 0.1 mm 6 mps 754 mmHg 65%
    12:00 +35°C° 0.1 mm 6 mps 754 mmHg 62%
    13:00 +35°C° 0 mm 6 mps 754 mmHg 63%
    14:00 +34°C° 0 mm 7 mps 753 mmHg 65%
    15:00 +34°C° 0 mm 7 mps 753 mmHg 66%
    16:00 +34°C° 0.2 mm 7 mps 752 mmHg 69%
    17:00 +33°C° 0.2 mm 7 mps 752 mmHg 72%
    18:00 +33°C° 0.2 mm 6 mps 752 mmHg 75%
    19:00 +32°C° 0.1 mm 6 mps 752 mmHg 76%
    20:00 +32°C° 0.1 mm 5 mps 753 mmHg 78%
    21:00 +32°C° 0.1 mm 4 mps 753 mmHg 79%
    22:00 +32°C° 0.4 mm 4 mps 753 mmHg 80%
    23:00 +32°C° 0.4 mm 4 mps 753 mmHg 81%

    30 May, Saturday

    Time Temperature Precipitation Wind Pressure Humidity
    00:00 +30°C° 0.4 mm 4 mps 753 mmHg 82%
    01:00 +30°C° 0 mm 4 mps 753 mmHg 83%
    02:00 +30°C° 0 mm 4 mps 753 mmHg 84%
    03:00 +30°C° 0 mm 5 mps 753 mmHg 85%
    04:00 +30°C° 0.1 mm 4 mps 753 mmHg 85%
    05:00 +30°C° 0.1 mm 3 mps 753 mmHg 85%
    06:00 +30°C° 0.1 mm 3 mps 754 mmHg 85%
    07:00 +33°C° 0.1 mm 3 mps 754 mmHg 78%
    08:00 +34°C° 0.1 mm 4 mps 754 mmHg 72%
    09:00 +35°C° 0.1 mm 5 mps 755 mmHg 66%
    10:00 +35°C° 0.2 mm 5 mps 755 mmHg 66%
    11:00 +35°C° 0.2 mm 5 mps 754 mmHg 66%
    12:00 +36°C° 0.2 mm 6 mps 754 mmHg 66%
    13:00 +36°C° 0.9 mm 6 mps 754 mmHg 64%
    14:00 +36°C° 0.9 mm 6 mps 753 mmHg 63%
    15:00 +38°C° 0.9 mm 7 mps 753 mmHg 61%
    16:00 +36°C° 0.3 mm 6 mps 753 mmHg 64%
    17:00 +35°C° 0.3 mm 6 mps 753 mmHg 67%
    18:00 +34°C° 0.3 mm 5 mps 752 mmHg 70%
    19:00 +34°C° 0.1 mm 5 mps 753 mmHg 73%
    20:00 +33°C° 0.1 mm 5 mps 753 mmHg 75%
    21:00 +33°C° 0.1 mm 5 mps 754 mmHg 78%
    22:00 +32°C° 0.1 mm 5 mps 754 mmHg 79%
    23:00 +32°C° 0.1 mm 5 mps 754 mmHg 80%

    31 May, Sunday

    Time Temperature Precipitation Wind Pressure Humidity
    00:00 +32°C° 0.1 mm 5 mps 754 mmHg 81%
    01:00 +32°C° 0 mm 5 mps 754 mmHg 82%
    02:00 +32°C° 0 mm 5 mps 754 mmHg 82%
    03:00 +32°C° 0 mm 5 mps 754 mmHg 83%
    04:00 +32°C° 0 mm 5 mps 754 mmHg 83%
    05:00 +32°C° 0 mm 5 mps 754 mmHg 82%
    06:00 +32°C° 0 mm 5 mps 755 mmHg 82%
    07:00 +33°C° 0 mm 5 mps 755 mmHg 77%
    08:00 +34°C° 0 mm 5 mps 755 mmHg 73%
    09:00 +35°C° 0 mm 5 mps 756 mmHg 68%
    10:00 +36°C° 0 mm 6 mps 755 mmHg 64%
    11:00 +38°C° 0 mm 6 mps 755 mmHg 60%
    12:00 +39°C° 0 mm 7 mps 755 mmHg 56%
    13:00 +38°C° 0 mm 7 mps 754 mmHg 59%
    14:00 +38°C° 0 mm 7 mps 754 mmHg 61%
    15:00 +37°C° 0 mm 8 mps 753 mmHg 64%
    16:00 +35°C° 0 mm 7 mps 753 mmHg 66%
    17:00 +35°C° 0 mm 7 mps 753 mmHg 69%
    18:00 +34°C° 0 mm 7 mps 753 mmHg 71%
    19:00 +33°C° 0 mm 7 mps 753 mmHg 73%
    20:00 +33°C° 0 mm 7 mps 753 mmHg 75%
    21:00 +33°C° 0 mm 7 mps 754 mmHg 77%
    22:00 +33°C° 0 mm 6 mps 754 mmHg 78%
    23:00 +32°C° 0 mm 6 mps 754 mmHg 78%
    Show more